SWA1562 KTPA-KBHM

Flight info

Callsign SWA1562
Flight time 1h 12m
Altitude 38000
Route ENDED2 LACEN PATOY Q116 DEEDA WANDS
Aircraft B38M/M-VGDW/C

Departure

Time 2026-04-30 19:22
Airport Tampa International Airport (KTPA)

Arrival

Time 2026-04-30 20:34
Airport Birmingham-Shuttlesworth International Airport (KBHM)
Time Latitude Longitude Altitude Speed Heading
2026-04-30 18:45 27.98341 -82.53118 45 ft 0 kts 256°
2026-04-30 19:02 27.98348 -82.53086 45 ft 0 kts 256°
2026-04-30 19:16 27.98347 -82.53088 45 ft 0 kts 256°
2026-04-30 19:16 27.98352 -82.53103 45 ft 6 kts 301°
2026-04-30 19:17 27.98420 -82.53130 45 ft 13 kts 345°
2026-04-30 19:17 27.98627 -82.53174 48 ft 16 kts 300°
2026-04-30 19:17 27.98642 -82.53290 57 ft 13 kts 273°
2026-04-30 19:18 27.98647 -82.53439 63 ft 14 kts 272°
2026-04-30 19:18 27.98654 -82.53691 53 ft 34 kts 271°
2026-04-30 19:18 27.98665 -82.53910 50 ft 21 kts 288°
2026-04-30 19:19 27.98792 -82.53952 49 ft 22 kts
2026-04-30 19:19 27.98969 -82.53937 49 ft 30 kts
2026-04-30 19:19 27.99347 -82.53990 49 ft 15 kts 279°
2026-04-30 19:20 27.99348 -82.54015 49 ft 1 kts 270°
2026-04-30 19:20 27.99348 -82.54037 49 ft 7 kts 270°
2026-04-30 19:20 27.99167 -82.54137 50 ft 37 kts 180°
2026-04-30 19:21 27.98741 -82.54154 52 ft 97 kts 181°
2026-04-30 19:21 27.96382 -82.54212 296 ft 225 kts 184°
2026-04-30 19:22 27.93253 -82.54769 2843 ft 232 kts 197°
2026-04-30 19:22 27.88617 -82.56807 5903 ft 253 kts 236°
2026-04-30 19:23 27.89595 -82.62170 8154 ft 268 kts 318°
2026-04-30 19:24 27.93203 -82.63491 9937 ft 281 kts 338°
2026-04-30 19:24 27.95096 -82.64159 10549 ft 293 kts 338°
2026-04-30 19:24 27.99267 -82.65593 11291 ft 331 kts 339°
2026-04-30 19:25 28.06156 -82.67814 13346 ft 350 kts 340°
2026-04-30 19:26 28.10908 -82.69281 14763 ft 356 kts 341°
2026-04-30 19:26 28.15733 -82.70756 16130 ft 362 kts 341°
2026-04-30 19:26 28.18175 -82.71500 16797 ft 365 kts 341°
2026-04-30 19:27 28.23083 -82.72996 18083 ft 370 kts 340°
2026-04-30 19:27 28.28102 -82.74524 19159 ft 376 kts 340°
2026-04-30 19:28 28.30639 -82.75297 19671 ft 379 kts 340°
2026-04-30 19:28 28.35776 -82.76861 20668 ft 384 kts 340°
2026-04-30 19:29 28.40995 -82.78408 21606 ft 393 kts 345°
2026-04-30 19:29 28.43720 -82.78827 22079 ft 397 kts 347°
2026-04-30 19:30 28.51967 -82.80199 23370 ft 405 kts 346°
2026-04-30 19:30 28.57580 -82.81176 24098 ft 410 kts 345°
2026-04-30 19:31 28.62303 -82.82027 24690 ft 414 kts 345°
2026-04-30 19:31 28.65155 -82.82540 25050 ft 416 kts 345°
2026-04-30 19:31 28.70924 -82.83579 25755 ft 421 kts 345°
2026-04-30 19:32 28.73795 -82.84096 26105 ft 424 kts 345°
2026-04-30 19:32 28.76717 -82.84623 26456 ft 426 kts 345°
2026-04-30 19:32 28.79657 -82.85153 26802 ft 428 kts 345°
2026-04-30 19:32 28.82611 -82.85686 27158 ft 431 kts 345°
2026-04-30 19:33 28.85583 -82.86223 27493 ft 433 kts 345°
2026-04-30 19:33 28.88567 -82.86762 27834 ft 435 kts 345°
2026-04-30 19:33 28.91567 -82.87304 28165 ft 437 kts 345°
2026-04-30 19:33 28.94581 -82.87849 28496 ft 440 kts 345°
2026-04-30 19:34 28.97608 -82.88398 28821 ft 442 kts 345°
2026-04-30 19:34 29.00657 -82.88949 29145 ft 444 kts 345°
2026-04-30 19:34 29.06589 -82.90580 29707 ft 437 kts 328°
2026-04-30 19:35 29.09154 -82.92407 29970 ft 435 kts 322°
2026-04-30 19:35 29.11668 -82.94352 30192 ft 437 kts 321°
2026-04-30 19:35 29.14174 -82.96341 30489 ft 438 kts 321°
2026-04-30 19:35 29.16664 -82.98346 30831 ft 437 kts 321°
2026-04-30 19:36 29.19137 -83.00356 31249 ft 435 kts 321°
2026-04-30 19:36 29.21596 -83.02364 31672 ft 433 kts 320°
2026-04-30 19:36 29.26470 -83.06352 32547 ft 429 kts 320°
2026-04-30 19:37 29.28894 -83.08338 32987 ft 426 kts 320°
2026-04-30 19:37 29.31304 -83.10314 33439 ft 424 kts 320°
2026-04-30 19:37 29.33669 -83.12253 33881 ft 422 kts 320°
2026-04-30 19:37 29.36050 -83.14208 34275 ft 419 kts 320°
2026-04-30 19:38 29.38418 -83.16153 34654 ft 417 kts 320°
2026-04-30 19:38 29.40773 -83.18088 35025 ft 415 kts 320°
2026-04-30 19:38 29.43112 -83.20011 35380 ft 412 kts 320°
2026-04-30 19:38 29.45442 -83.21927 35719 ft 410 kts 320°
2026-04-30 19:39 29.47759 -83.23834 36046 ft 408 kts 320°
2026-04-30 19:39 29.50034 -83.25708 36361 ft 406 kts 320°
2026-04-30 19:39 29.52327 -83.27598 36707 ft 403 kts 320°
2026-04-30 19:39 29.54599 -83.29471 37121 ft 399 kts 320°
2026-04-30 19:40 29.56848 -83.31326 37479 ft 396 kts 320°
2026-04-30 19:40 29.59084 -83.33171 37783 ft 394 kts 320°
2026-04-30 19:40 29.61307 -83.35008 37951 ft 394 kts 320°
2026-04-30 19:40 29.63530 -83.36845 37935 ft 391 kts 320°
2026-04-30 19:41 29.67937 -83.40490 37933 ft 389 kts 320°
2026-04-30 19:41 29.72333 -83.44129 37934 ft 389 kts 320°
2026-04-30 19:42 29.76697 -83.47746 37935 ft 389 kts 320°
2026-04-30 19:42 29.81086 -83.51388 37931 ft 388 kts 320°
2026-04-30 19:43 29.85462 -83.55024 37929 ft 388 kts 319°
2026-04-30 19:44 29.92016 -83.60471 37922 ft 387 kts 319°
2026-04-30 19:44 29.96380 -83.64104 37920 ft 386 kts 319°
2026-04-30 19:45 30.00708 -83.67710 37919 ft 386 kts 319°
2026-04-30 19:45 30.05064 -83.71344 37918 ft 386 kts 319°
2026-04-30 19:46 30.09416 -83.74978 37915 ft 386 kts 319°
2026-04-30 19:46 30.13768 -83.78617 37928 ft 385 kts 319°
2026-04-30 19:47 30.18107 -83.82251 37917 ft 385 kts 319°
2026-04-30 19:47 30.22419 -83.85867 37916 ft 385 kts 319°
2026-04-30 19:48 30.26757 -83.89510 37926 ft 385 kts 318°
2026-04-30 19:48 30.31096 -83.93158 37922 ft 385 kts 318°
2026-04-30 19:49 30.35428 -83.96803 37919 ft 385 kts 318°
2026-04-30 19:49 30.41923 -84.02277 37895 ft 384 kts 318°
2026-04-30 19:50 30.46244 -84.05923 37938 ft 385 kts 317°
2026-04-30 19:50 30.50536 -84.09549 37909 ft 383 kts 317°
2026-04-30 19:51 30.54850 -84.13198 37920 ft 383 kts 317°
2026-04-30 19:51 30.59164 -84.16851 37919 ft 383 kts 317°
2026-04-30 19:52 30.63469 -84.20501 37923 ft 383 kts 317°
2026-04-30 19:52 30.67771 -84.24152 37923 ft 383 kts 317°
2026-04-30 19:53 30.72037 -84.27776 37924 ft 382 kts 317°
2026-04-30 19:53 30.76356 -84.31450 37923 ft 382 kts 317°
2026-04-30 19:54 30.80642 -84.35100 37927 ft 382 kts 317°
2026-04-30 19:54 30.84896 -84.38726 37932 ft 381 kts 316°
2026-04-30 19:55 30.89176 -84.42379 37934 ft 381 kts 316°
2026-04-30 19:55 30.93446 -84.46028 37932 ft 380 kts 316°
2026-04-30 19:56 30.97709 -84.49674 37931 ft 379 kts 316°
2026-04-30 19:56 31.01928 -84.53287 37937 ft 378 kts 316°
2026-04-30 19:57 31.06165 -84.56919 37940 ft 378 kts 316°
2026-04-30 19:57 31.10397 -84.60552 37937 ft 377 kts 316°
2026-04-30 19:58 31.14612 -84.64173 37936 ft 376 kts 316°
2026-04-30 19:58 31.18819 -84.67793 37930 ft 375 kts 316°
2026-04-30 19:59 31.23020 -84.71410 37935 ft 375 kts 316°
2026-04-30 20:00 31.29290 -84.76818 37941 ft 375 kts 316°
2026-04-30 20:00 31.33490 -84.80445 37940 ft 375 kts 316°
2026-04-30 20:01 31.39778 -84.85884 37938 ft 374 kts 316°
2026-04-30 20:01 31.43943 -84.89492 37934 ft 374 kts 316°
2026-04-30 20:02 31.50223 -84.94937 37939 ft 374 kts 315°
2026-04-30 20:03 31.56507 -85.00389 37957 ft 374 kts 316°
2026-04-30 20:03 31.60739 -85.03952 37933 ft 374 kts 316°
2026-04-30 20:04 31.64946 -85.07502 37944 ft 374 kts 316°
2026-04-30 20:05 31.71289 -85.12864 37958 ft 373 kts 316°
2026-04-30 20:05 31.77612 -85.18219 37967 ft 373 kts 315°
2026-04-30 20:06 31.81824 -85.21791 37965 ft 373 kts 315°
2026-04-30 20:06 31.86016 -85.25350 37964 ft 373 kts 315°
2026-04-30 20:07 31.90216 -85.28920 37965 ft 372 kts 315°
2026-04-30 20:08 31.96509 -85.34277 37965 ft 372 kts 315°
2026-04-30 20:08 32.00700 -85.37850 37961 ft 371 kts 315°
2026-04-30 20:09 32.04884 -85.41421 37963 ft 371 kts 315°
2026-04-30 20:09 32.11150 -85.46776 37960 ft 370 kts 315°
2026-04-30 20:10 32.17406 -85.52132 37961 ft 370 kts 315°
2026-04-30 20:11 32.23598 -85.57441 36741 ft 361 kts 315°
2026-04-30 20:11 32.25621 -85.59178 36205 ft 358 kts 315°
2026-04-30 20:11 32.27615 -85.60892 35528 ft 360 kts 315°
2026-04-30 20:12 32.31693 -85.64398 34114 ft 364 kts 316°
2026-04-30 20:12 32.33746 -85.66165 33315 ft 367 kts 316°
2026-04-30 20:12 32.35818 -85.67949 32535 ft 368 kts 316°
2026-04-30 20:13 32.37909 -85.69751 31773 ft 376 kts 316°
2026-04-30 20:13 32.40043 -85.71591 30990 ft 382 kts 316°
2026-04-30 20:13 32.42215 -85.73464 30169 ft 388 kts 316°
2026-04-30 20:13 32.44385 -85.75338 29300 ft 396 kts 317°
2026-04-30 20:14 32.46627 -85.77274 28626 ft 400 kts 316°
2026-04-30 20:14 32.48880 -85.79221 28002 ft 403 kts 316°
2026-04-30 20:14 32.51145 -85.81179 27364 ft 403 kts 316°
2026-04-30 20:14 32.53409 -85.83138 26727 ft 402 kts 316°
2026-04-30 20:15 32.55662 -85.85090 26095 ft 400 kts 316°
2026-04-30 20:15 32.57909 -85.87037 25462 ft 399 kts 316°
2026-04-30 20:15 32.60145 -85.88975 24846 ft 397 kts 316°
2026-04-30 20:15 32.62368 -85.90902 24233 ft 395 kts 316°
2026-04-30 20:16 32.64581 -85.92824 23625 ft 394 kts 315°
2026-04-30 20:16 32.66794 -85.94745 22909 ft 393 kts 315°
2026-04-30 20:16 32.68967 -85.96634 22289 ft 391 kts 316°
2026-04-30 20:16 32.71156 -85.98530 21681 ft 388 kts 317°
2026-04-30 20:17 32.73380 -86.00397 20720 ft 395 kts 318°
2026-04-30 20:17 32.75627 -86.02281 19923 ft 391 kts 318°
2026-04-30 20:17 32.77816 -86.04124 19350 ft 382 kts 319°
2026-04-30 20:17 32.79955 -86.05926 18805 ft 373 kts 319°
2026-04-30 20:18 32.82065 -86.07706 18246 ft 372 kts 319°
2026-04-30 20:18 32.84173 -86.09486 17621 ft 371 kts 319°
2026-04-30 20:18 32.86273 -86.11260 17044 ft 368 kts 319°
2026-04-30 20:18 32.88355 -86.13020 16508 ft 366 kts 320°
2026-04-30 20:19 32.89729 -86.14181 16161 ft 364 kts 320°
2026-04-30 20:19 32.91791 -86.15926 15636 ft 362 kts 320°
2026-04-30 20:19 32.94504 -86.18223 14962 ft 360 kts 320°
2026-04-30 20:19 32.95879 -86.19387 14626 ft 359 kts 320°
2026-04-30 20:20 32.98568 -86.21666 13989 ft 357 kts 320°
2026-04-30 20:20 32.99936 -86.22826 13636 ft 356 kts 321°
2026-04-30 20:20 33.01951 -86.24536 13101 ft 355 kts 321°
2026-04-30 20:20 33.03957 -86.26238 12590 ft 353 kts 321°
2026-04-30 20:21 33.05952 -86.27933 12115 ft 351 kts 321°
2026-04-30 20:21 33.07936 -86.29620 11653 ft 348 kts 321°
2026-04-30 20:21 33.09863 -86.31258 11431 ft 340 kts 321°
2026-04-30 20:21 33.11758 -86.32871 11251 ft 330 kts 321°
2026-04-30 20:22 33.13597 -86.34436 11085 ft 320 kts 321°
2026-04-30 20:22 33.15385 -86.35962 10912 ft 311 kts 320°
2026-04-30 20:22 33.16828 -86.37795 10718 ft 299 kts 302°
2026-04-30 20:22 33.17993 -86.39813 10562 ft 291 kts 303°
2026-04-30 20:23 33.19134 -86.41759 10413 ft 283 kts 303°
2026-04-30 20:23 33.20241 -86.43657 10256 ft 275 kts 303°
2026-04-30 20:23 33.21318 -86.45505 10113 ft 266 kts 303°
2026-04-30 20:23 33.22353 -86.47286 9862 ft 263 kts 303°
2026-04-30 20:24 33.23280 -86.48883 9553 ft 262 kts 303°
2026-04-30 20:24 33.24250 -86.50554 9225 ft 263 kts 303°
2026-04-30 20:24 33.25304 -86.52371 8909 ft 269 kts 303°
2026-04-30 20:24 33.26379 -86.54224 8586 ft 273 kts 304°
2026-04-30 20:25 33.28569 -86.57978 7930 ft 276 kts 305°
2026-04-30 20:25 33.29684 -86.59853 7576 ft 277 kts 305°
2026-04-30 20:26 33.31904 -86.63599 6953 ft 275 kts 306°
2026-04-30 20:26 33.34098 -86.67307 6461 ft 270 kts 306°
2026-04-30 20:26 33.35178 -86.69134 6290 ft 264 kts 307°
2026-04-30 20:27 33.37167 -86.72501 6029 ft 239 kts 307°
2026-04-30 20:27 33.39042 -86.75675 5693 ft 228 kts 307°
2026-04-30 20:28 33.40658 -86.78842 5266 ft 223 kts 297°
2026-04-30 20:28 33.41915 -86.82208 4487 ft 219 kts 297°
2026-04-30 20:29 33.43189 -86.85422 3782 ft 205 kts 305°
2026-04-30 20:30 33.46227 -86.87891 2996 ft 167 kts 352°
2026-04-30 20:30 33.49257 -86.87129 2616 ft 141 kts 31°
2026-04-30 20:31 33.51209 -86.84545 2177 ft 141 kts 53°
2026-04-30 20:32 33.52869 -86.81679 1618 ft 140 kts 52°
2026-04-30 20:32 33.53993 -86.79733 1219 ft 142 kts 52°
2026-04-30 20:33 33.54558 -86.78751 1023 ft 142 kts 53°
2026-04-30 20:33 33.55727 -86.76724 630 ft 140 kts 53°
2026-04-30 20:33 33.56227 -86.75864 616 ft 107 kts 56°
2026-04-30 20:34 33.56662 -86.75099 613 ft 16 kts 76°
2026-04-30 20:34 33.56627 -86.75021 610 ft 3 kts 159°
2026-04-30 20:35 33.56588 -86.75029 609 ft 10 kts 219°
2026-04-30 20:35 33.56525 -86.75141 614 ft 24 kts 237°
2026-04-30 20:35 33.56302 -86.75392 617 ft 6 kts 208°
2026-04-30 20:36 33.56253 -86.75398 618 ft 7 kts 156°
2026-04-30 20:36 33.56203 -86.75370 621 ft 8 kts 168°
2026-04-30 20:36 33.56173 -86.75364 620 ft 0 kts 169°